Midland, MI

3:30 AM EDT on May 30, 2017 (GMT -0400)
Barstow

Weather History for KIKW - May, 2013

Change the Weather History Date:

Wednesday, May 8, 2013

  Actual Average (KMBS) Record (KMBS)
Temperature  
Mean Temperature 62 °F -  
Max Temperature 79 °F 63 °F 84 °F (2000)
Min Temperature 45 °F 43 °F 29 °F (2017)
Degree Days  
Heating Degree Days 3    
Growing Degree Days 12 (Base 50)    
Moisture  
Dew Point 44 °F    
Average Humidity 54    
Maximum Humidity 94    
Minimum Humidity 27    
Precipitation  
Precipitation 0.00 in - - ()
Sea Level Pressure  
Sea Level Pressure 30.00 in    
Wind  
Wind Speed 2 mph (ENE)    
Max Wind Speed 10 mph    
Max Gust Speed 9 mph    
Visibility 10 miles    
Events      
Averages and records for this station are not official NWS values.
T = Trace of Precipitation, MM = Missing Value Source: NWS Daily Summary

Daily Weather History Graph

Daily Weather History Graph

Search for Another Location

Airport or City:

Trip Planner

Search our weather history database for the weather conditions in past years. The results will help you decide how hot, cold, wet, or windy it might be!

Date:

Astronomy

May. 08, 2013 Rise Set
Actual Time 6:19 AM EDT 8:47 PM EDT
Civil Twilight 5:47 AM EDT 9:20 PM EDT
Nautical Twilight 5:07 AM EDT 10:00 PM EDT
Astronomical Twilight 4:21 AM EDT 10:46 PM EDT
Moon 5:29 AM EDT (5/8) 7:43 PM EDT (5/8)
Length of Visible Light 15h 32m
Length of Day
14h 28m
Waning Crescent, 2% of the Moon is Illuminated
May 8
Waning Crescent
May 9
New
May 18
First Quarter
May 25
Full
May 31
Last Quarter

Hourly Weather History & Observations

Time (EDT) Temp. Dew Point Humidity Pressure Visibility Wind Dir Wind Speed Gust Speed Precip Events Conditions
12:13 AM 57.4 °F 44.6 °F 62% 30.04 in 10.0 mi East 3.5 mph - N/A   Clear
12:33 AM 54.9 °F 45.5 °F 71% 30.04 in 10.0 mi Calm Calm - N/A   Clear
12:53 AM 54.3 °F 45.5 °F 72% 30.04 in 10.0 mi Calm Calm - N/A   Clear
1:13 AM 53.1 °F 45.5 °F 75% 30.04 in 10.0 mi Calm Calm - N/A   Clear
1:33 AM 52.7 °F 46.0 °F 78% 30.04 in 10.0 mi Calm Calm - N/A   Clear
1:53 AM 51.1 °F 46.4 °F 84% 30.03 in 10.0 mi Calm Calm - N/A   Clear
2:13 AM 49.5 °F 45.9 °F 87% 30.03 in 10.0 mi Calm Calm - N/A   Clear
2:33 AM 50.7 °F 46.0 °F 84% 30.02 in 10.0 mi Calm Calm - N/A   Clear
2:53 AM 49.5 °F 45.7 °F 87% 30.02 in 10.0 mi Calm Calm - N/A   Clear
3:13 AM 50.0 °F 45.3 °F 84% 30.02 in 10.0 mi NNW 3.5 mph - N/A   Clear
3:33 AM 49.5 °F 45.1 °F 85% 30.03 in 10.0 mi Calm Calm - N/A   Clear
3:53 AM 49.1 °F 45.3 °F 87% 30.03 in 10.0 mi Calm Calm - N/A   Clear
4:13 AM 49.1 °F 44.6 °F 84% 30.03 in 10.0 mi Calm Calm - N/A   Clear
4:33 AM 47.5 °F 44.4 °F 89% 30.03 in 10.0 mi Calm Calm - N/A   Clear
4:53 AM 47.5 °F 45.3 °F 92% 30.03 in 10.0 mi Calm Calm - N/A   Clear
5:13 AM 47.3 °F 45.1 °F 92% 30.03 in 10.0 mi Calm Calm - N/A   Clear
5:33 AM 47.3 °F 44.8 °F 91% 30.03 in 10.0 mi Calm Calm - N/A   Clear
5:53 AM 46.6 °F 44.4 °F 92% 30.03 in 10.0 mi Calm Calm - N/A   Clear
6:13 AM 45.7 °F 44.1 °F 94% 30.03 in 10.0 mi Calm Calm - N/A   Clear
6:33 AM 46.0 °F 43.9 °F 92% 30.03 in 10.0 mi Calm Calm - N/A   Clear
6:54 AM 46.0 °F 44.4 °F 94% 30.04 in 10.0 mi Calm Calm - N/A   Clear
7:13 AM 47.3 °F 45.5 °F 93% 30.04 in 10.0 mi Calm Calm - N/A   Clear
7:33 AM 50.5 °F 45.7 °F 83% 30.04 in 10.0 mi Calm Calm - N/A   Clear
7:54 AM 54.5 °F 44.8 °F 70% 30.04 in 10.0 mi NW 3.5 mph - N/A   Clear
8:07 AM 56.3 °F 42.6 °F 60% 30.04 in 10.0 mi Calm Calm - N/A   Clear
8:33 AM 60.8 °F 41.4 °F 49% 30.04 in 10.0 mi Calm Calm - N/A   Clear
8:54 AM 63.3 °F 42.1 °F 46% 30.04 in 10.0 mi Calm Calm - N/A   Clear
9:13 AM 65.8 °F 41.7 °F 41% 30.04 in 10.0 mi Calm Calm - N/A   Clear
9:33 AM 68.0 °F 41.5 °F 38% 30.04 in 10.0 mi Calm Calm - N/A   Clear
9:53 AM 69.4 °F 40.3 °F 35% 30.04 in 10.0 mi North 4.6 mph - N/A   Clear
10:13 AM 70.3 °F 40.6 °F 34% 30.04 in 10.0 mi Calm Calm - N/A   Clear
10:33 AM 71.2 °F 40.8 °F 33% 30.03 in 10.0 mi Calm Calm - N/A   Clear
10:53 AM 73.4 °F 42.6 °F 33% 30.04 in 10.0 mi Calm Calm - N/A   Clear
11:13 AM 75.2 °F 42.4 °F 31% 30.03 in 10.0 mi Calm Calm - N/A   Clear
11:34 AM 75.6 °F 41.5 °F 29% 30.03 in 10.0 mi East 4.6 mph - N/A   Clear
11:53 AM 76.8 °F 44.8 °F 32% 30.03 in 10.0 mi North 4.6 mph - N/A   Clear
12:13 PM 77.2 °F 43.5 °F 30% 30.02 in 10.0 mi Calm Calm - N/A   Clear
12:34 PM 78.1 °F 43.7 °F 29% 30.02 in 10.0 mi East 6.9 mph - N/A   Clear
12:53 PM 78.8 °F 44.2 °F 29% 30.02 in 10.0 mi ENE 8.1 mph - N/A   Clear
1:13 PM 78.1 °F 44.4 °F 30% 30.01 in 10.0 mi NNE 6.9 mph - N/A   Clear
1:33 PM 79.0 °F 46.0 °F 31% 30.00 in 10.0 mi East 9.2 mph - N/A   Clear
1:53 PM 78.3 °F 44.6 °F 30% 29.99 in 10.0 mi Calm Calm - N/A   Clear
2:14 PM 79.5 °F 46.0 °F 31% 29.99 in 10.0 mi ESE 4.6 mph - N/A   Clear
2:33 PM 77.9 °F 45.5 °F 32% 29.99 in 10.0 mi East 5.8 mph - N/A   Scattered Clouds
2:53 PM 79.9 °F 45.9 °F 30% 29.98 in 10.0 mi East 4.6 mph 9.2 mph N/A   Scattered Clouds
3:14 PM 79.5 °F 45.1 °F 30% 29.98 in 10.0 mi East 6.9 mph - N/A   Scattered Clouds
3:33 PM 79.7 °F 44.8 °F 29% 29.98 in 10.0 mi East 10.4 mph - N/A   Clear
3:53 PM 79.2 °F 43.0 °F 28% 29.98 in 10.0 mi East 10.4 mph - N/A   Scattered Clouds
4:14 PM 79.7 °F 44.2 °F 28% 29.97 in 10.0 mi ENE 9.2 mph - N/A   Clear
4:33 PM 79.3 °F 42.8 °F 27% 29.97 in 10.0 mi East 8.1 mph - N/A   Scattered Clouds
4:53 PM 79.2 °F 42.4 °F 27% 29.96 in 10.0 mi East 8.1 mph - N/A   Scattered Clouds
5:14 PM 77.2 °F 42.1 °F 29% 29.95 in 10.0 mi East 5.8 mph - N/A   Clear
5:33 PM 76.6 °F 42.3 °F 29% 29.96 in 10.0 mi ENE 6.9 mph - N/A   Clear
5:54 PM 74.5 °F 41.7 °F 31% 29.96 in 10.0 mi ENE 6.9 mph - N/A   Scattered Clouds
6:13 PM 73.9 °F 41.7 °F 31% 29.96 in 10.0 mi NNE 3.5 mph - N/A   Scattered Clouds
6:33 PM 73.6 °F 40.6 °F 30% 29.96 in 10.0 mi ENE 5.8 mph - N/A   Mostly Cloudy
6:54 PM 73.6 °F 39.7 °F 29% 29.95 in 10.0 mi ENE 5.8 mph - N/A   Mostly Cloudy
7:13 PM 72.7 °F 42.1 °F 33% 29.95 in 10.0 mi ENE 5.8 mph - N/A   Clear
7:33 PM 72.0 °F 43.5 °F 36% 29.95 in 10.0 mi East 5.8 mph - N/A   Mostly Cloudy
7:54 PM 68.9 °F 46.2 °F 44% 29.95 in 10.0 mi ENE 5.8 mph - N/A   Scattered Clouds
8:13 PM 67.5 °F 46.8 °F 47% 29.95 in 10.0 mi ENE 5.8 mph - N/A   Clear
8:33 PM 66.6 °F 45.0 °F 46% 29.96 in 10.0 mi NE 3.5 mph - N/A   Clear
8:54 PM 64.4 °F 44.2 °F 48% 29.96 in 10.0 mi ENE 4.6 mph - N/A   Clear
9:13 PM 63.1 °F 43.2 °F 48% 29.97 in 10.0 mi ENE 3.5 mph - N/A   Scattered Clouds
9:33 PM 63.0 °F 42.8 °F 48% 29.97 in 10.0 mi Calm Calm - N/A   Scattered Clouds
9:54 PM 61.3 °F 42.8 °F 51% 29.98 in 10.0 mi ENE 3.5 mph - N/A   Scattered Clouds
10:13 PM 61.5 °F 43.2 °F 51% 29.98 in 10.0 mi ENE 4.6 mph - N/A   Scattered Clouds
10:33 PM 60.1 °F 44.1 °F 55% 29.99 in 10.0 mi Calm Calm - N/A   Scattered Clouds
10:54 PM 59.0 °F 44.4 °F 58% 29.99 in 10.0 mi ENE 3.5 mph - N/A   Scattered Clouds
11:13 PM 57.2 °F 45.5 °F 65% 29.98 in 10.0 mi ENE 3.5 mph - N/A   Mostly Cloudy
11:34 PM 58.6 °F 44.2 °F 59% 29.98 in 10.0 mi Calm Calm - N/A   Scattered Clouds
11:54 PM 57.0 °F 46.6 °F 68% 29.98 in 10.0 mi Calm Calm - N/A   Mostly Cloudy